User: anonymous   Login
Location: Prairie State College
(41.5244°N, 87.6382°W)
Time: 11:02:38
(UTC-05:00)
Language:

ARGOS Delta rocket - Orbit

View from above orbital plane
View from above orbital plane
View from above satellite
View from above satellite

Ground track
Ground track

The orbit data is extracted from the following two-line orbital elements,

1 25637U 99008D   16148.88837578  .00000098  00000-0  31331-4 0  9995
2 25637  96.4536 133.3454 0144515  66.9828 349.9834 14.46431889909916
Epoch (UTC): 27 May 2016 21:19:15
Eccentricity: 0.0144515
inclination: 96.4536°
perigee height: 634 km
apogee height: 840 km
right ascension of ascending node: 133.3454°
argument of perigee: 66.9828°
revolutions per day: 14.46431889
mean anomaly at epoch: 349.9834°
orbit number at epoch: 90991

The dashed part of the orbit path shows where the satellite is in the earth's shadow,  

DLR